Vorticity
3 2 5 2 7 2 10 2 -21 11 17 18 10 6 6 11 8 -3 12 8 -4 9 3 0 3 6 2 4 6 5 5 5 6 7 6 6 6 6 6 6 6 6 6 6 7 7 8 8 8
5 4 5 4 -5 -5 9 1 7 -1 7 10 6 14 4 -3 5 13 11 17 6 10 6 -2 3 7 2 1 3 4 7 6 5 7 7 6 6 6 6 6 6 5 5 6 10 5 5 5 5
5 4 4 4 13 -0 -0 7 7 8 -8 8 5 7 15 15 6 6 8 17 3 11 5 1 2 4 3 -0 -1 7 8 6 5 6 6 6 6 7 7 7 6 6 6 6 7 7 6 7 6
7 7 9 -7 -6 9 -4 1 9 6 2 5 10 2 2 10 7 10 8 8 -2 8 4 3 1 -2 5 -2 3 4 5 6 6 5 5 6 7 7 7 7 8 7 7 7 7 7 7 6 6
11 3 4 13 5 2 9 -7 5 9 7 2 11 9 8 1 9 5 4 16 16 8 7 3 2 1 3 1 0 -2 5 5 5 5 5 6 6 6 6 7 8 8 8 9 9 9 8 8 8
13 -6 5 -1 7 4 -2 6 20 13 9 7 9 3 7 2 6 10 -1 10 7 6 11 4 6 2 1 1 -1 -3 1 10 2 4 5 6 5 6 6 6 6 7 7 7 7 7 6 6 7
-3 13 1 2 7 9 1 9 2 11 -9 -0 1 5 10 3 6 7 9 2 10 11 8 7 6 4 0 2 1 2 3 5 7 4 4 5 1 2 3 9 7 6 6 6 6 6 5 5 5
8 11 18 2 4 11 7 6 5 -2 8 6 5 17 7 1 0 8 12 6 3 7 9 5 6 6 3 1 1 1 -0 1 8 4 2 5 4 1 1 3 7 7 6 6 6 5 5 5 6
7 -6 8 9 10 4 15 6 8 8 9 -1 5 -2 4 6 4 3 7 9 2 -1 4 12 6 6 5 2 2 1 1 1 4 5 5 3 5 3 3 1 2 6 6 6 6 5 5 5 4
-1 6 5 3 0 18 -4 12 12 11 5 5 8 6 3 8 -1 5 6 11 10 7 4 8 11 8 6 4 3 2 5 1 2 6 3 4 4 5 4 4 2 2 3 3 4 4 4 2 2
11 -1 -16 20 -2 -0 6 20 1 15 12 12 10 4 12 8 -2 1 2 13 9 3 6 16 10 13 11 10 5 4 7 2 2 5 4 3 3 5 5 4 4 3 2 3 3 3 4 2 2
6 11 8 1 15 12 14 -4 7 9 15 9 9 7 10 10 3 -0 0 0 4 6 1 6 -1 6 9 8 10 9 7 6 3 4 4 4 3 4 5 5 4 4 4 3 3 3 4 6 1
7 4 29 -11 -26 22 17 6 9 8 11 10 11 14 12 11 5 1 0 -0 -1 4 6 7 6 5 8 4 4 6 8 6 6 5 5 3 5 3 4 5 4 4 5 4 4 4 4 4 5
24 4 4 29 9 -10 14 9 1 7 -0 8 -1 13 11 13 6 3 1 1 2 3 3 -0 4 6 3 5 10 7 7 7 6 4 5 5 2 4 5 5 5 5 5 4 5 4 4 5 6
-20 19 23 -19 33 25 -10 -7 0 7 6 7 4 5 11 5 11 9 6 1 3 4 5 0 4 7 8 7 4 4 6 6 6 6 6 4 3 6 7 5 4 5 5 5 5 5 4 5 5
9 1 -2 51 -9 17 -15 16 23 16 -2 8 6 -0 11 3 8 7 6 5 4 4 5 0 1 2 5 2 -0 4 0 3 3 7 6 5 6 7 8 7 7 6 6 5 5 6 5 5 6
23 4 -4 -15 45 -11 8 18 21 -15 49 16 -3 3 9 7 2 3 6 4 4 4 8 2 0 -0 4 1 -0 6 12 10 4 4 1 -1 3 6 6 6 7 7 6 6 6 5 6 5 5
5 16 19 14 19 18 14 -6 5 36 29 -4 14 17 9 10 5 5 1 4 6 3 3 0 2 -2 1 6 0 5 10 9 8 8 4 6 9 10 10 8 7 7 6 6 6 5 7 6 5
18 21 -6 20 -6 18 16 -0 -2 -17 -25 3 24 9 9 27 6 11 3 4 2 0 0 2 2 1 1 5 1 3 7 9 10 8 14 10 9 7 5 7 9 9 8 6 5 5 6 6 5
14 4 7 16 20 -13 14 13 8 14 15 15 2 -3 9 15 13 15 9 7 4 4 3 3 3 3 2 2 1 4 4 6 7 10 8 8 6 6 7 7 4 6 6 6 5 6 7 6 5
12 9 11 0 7 2 5 8 9 10 12 10 14 16 13 8 11 10 10 10 7 6 5 3 3 2 2 1 4 4 3 3 2 7 9 7 8 7 6 7 5 5 5 6 7 7 5 6 5
3 5 13 -4 10 -5 11 16 32 16 14 11 11 12 13 14 13 11 14 14 11 12 9 7 4 3 3 3 1 -0 0 -1 -0 1 -1 4 -3 -0 10 5 8 7 5 7 8 8 5 4 3
-7 -5 8 11 5 6 22 0 15 12 14 12 13 15 18 16 15 12 10 14 17 16 15 17 18 20 21 20 19 17 13 11 12 14 7 4 0 -3 2 6 4 4 7 8 3 9 7 6 5
-22 33 8 7 -1 10 17 -12 18 8 10 12 23 18 14 15 17 19 21 23 23 21 18 16 13 11 11 12 15 16 17 15 11 15 18 19 17 9 5 4 2 2 3 4 8 9 8 6 8
37 26 8 6 8 16 25 2 12 17 12 11 13 17 17 11 10 13 12 11 11 15 20 24 26 24 18 15 11 8 9 9 6 7 8 11 17 23 18 8 3 3 3 3 5 6 6 9 7
6 -11 2 7 9 17 19 16 17 2 13 9 9 9 9 8 7 6 7 8 8 8 8 8 8 9 10 13 18 22 20 14 10 6 4 2 3 7 14 18 20 15 10 11 13 5 5 7 6
21 3 9 1 11 4 10 21 12 25 8 2 4 4 4 5 5 5 4 3 4 5 6 5 5 6 8 8 8 7 7 10 12 16 18 20 20 16 9 4 3 6 15 7 12 8 7 5 7
-33 5 -2 10 7 7 16 11 10 16 10 9 6 4 3 5 4 2 1 2 4 5 5 4 6 5 6 6 6 5 4 4 5 7 9 11 11 12 15 13 14 10 8 12 13 9 9 8 6
6 4 5 3 7 11 9 14 27 20 10 8 8 8 7 8 6 4 6 7 4 5 7 10 9 14 13 15 18 15 11 9 8 8 8 6 4 5 8 11 12 12 11 9 9 13 14 11 11
0 19 -3 3 11 12 11 9 27 16 10 1 2 11 0 4 5 3 4 7 7 8 10 16 13 10 13 15 14 13 12 12 11 12 15 17 12 8 7 8 13 13 10 11 9 9 10 8 10
Height
3144 3146 3149 3152 3159 3155 3153 3155 3154 3155 3156 3156 3158 3161 3164 3164 3169 3173 3170 3172 3174 3175 3177 3179 3179 3180 3180 3181 3181 3182 3182 3181 3181 3181 3180 3180 3179 3179 3178 3177 3177 3176 3176 3175 3174 3174 3173 3173 3173
3139 3142 3146 3147 3151 3149 3148 3152 3152 3154 3154 3155 3157 3159 3161 3164 3164 3166 3168 3169 3172 3174 3176 3178 3179 3180 3180 3180 3181 3182 3182 3182 3182 3181 3181 3179 3179 3179 3179 3178 3178 3177 3176 3175 3175 3175 3175 3175 3174
3135 3138 3143 3143 3142 3141 3146 3148 3151 3152 3152 3154 3156 3157 3159 3161 3162 3164 3165 3167 3170 3172 3175 3177 3178 3179 3180 3181 3181 3182 3182 3182 3182 3181 3180 3180 3180 3180 3180 3179 3178 3177 3176 3176 3176 3176 3175 3175 3175
3130 3133 3137 3134 3134 3137 3143 3146 3146 3149 3151 3152 3154 3157 3158 3159 3161 3162 3164 3165 3168 3171 3173 3175 3177 3178 3180 3181 3181 3182 3182 3181 3181 3181 3181 3181 3181 3181 3180 3179 3178 3178 3177 3177 3177 3176 3176 3176 3176
3123 3127 3130 3128 3129 3135 3137 3143 3144 3146 3148 3150 3152 3154 3157 3158 3159 3161 3163 3164 3167 3169 3172 3174 3176 3177 3179 3180 3181 3181 3182 3182 3182 3182 3182 3182 3182 3181 3180 3180 3179 3179 3178 3178 3177 3177 3176 3176 3176
3117 3121 3122 3120 3124 3129 3132 3136 3141 3143 3145 3148 3151 3152 3155 3157 3158 3160 3162 3164 3166 3168 3171 3173 3175 3177 3178 3179 3180 3181 3182 3182 3182 3182 3182 3182 3182 3181 3181 3181 3180 3179 3179 3178 3178 3177 3177 3177 3177
3109 3113 3112 3118 3121 3124 3126 3131 3136 3142 3144 3146 3147 3151 3153 3155 3157 3159 3161 3163 3164 3167 3169 3171 3173 3175 3176 3178 3179 3180 3181 3182 3182 3182 3182 3182 3182 3181 3181 3181 3180 3180 3179 3178 3178 3178 3178 3178 3177
3105 3108 3111 3113 3114 3117 3123 3125 3133 3136 3140 3142 3144 3147 3152 3153 3155 3157 3159 3161 3163 3165 3167 3168 3171 3172 3174 3175 3177 3178 3179 3180 3181 3181 3182 3182 3182 3182 3181 3181 3180 3180 3179 3179 3178 3178 3178 3178 3178
3098 3103 3102 3106 3109 3116 3118 3120 3127 3131 3135 3138 3141 3143 3146 3149 3152 3154 3157 3159 3161 3163 3165 3167 3168 3169 3171 3173 3174 3176 3177 3179 3180 3180 3181 3181 3181 3181 3180 3180 3180 3179 3179 3179 3179 3178 3178 3178 3178
3092 3094 3096 3106 3108 3109 3112 3117 3123 3127 3129 3133 3136 3139 3142 3146 3149 3151 3154 3157 3159 3162 3163 3165 3166 3167 3169 3170 3172 3173 3175 3177 3177 3178 3179 3179 3179 3179 3179 3179 3179 3179 3179 3179 3179 3178 3178 3178 3178
3085 3086 3096 3096 3098 3104 3109 3112 3117 3121 3123 3127 3132 3135 3138 3141 3145 3148 3151 3153 3156 3159 3161 3162 3163 3165 3166 3168 3169 3171 3172 3174 3174 3175 3176 3176 3177 3177 3177 3177 3177 3177 3177 3178 3178 3178 3177 3177 3177
3080 3083 3089 3094 3095 3099 3104 3108 3111 3116 3120 3122 3125 3129 3133 3137 3141 3145 3147 3150 3153 3156 3157 3159 3161 3162 3164 3165 3167 3168 3169 3170 3171 3172 3173 3174 3174 3175 3175 3175 3175 3175 3176 3176 3176 3176 3175 3175 3174
3075 3081 3083 3088 3092 3095 3099 3103 3108 3111 3114 3117 3120 3124 3128 3132 3136 3140 3143 3145 3149 3151 3154 3155 3158 3159 3161 3163 3164 3165 3166 3167 3168 3169 3170 3171 3171 3171 3172 3172 3173 3173 3173 3173 3173 3173 3173 3172 3172
3072 3077 3080 3083 3088 3092 3095 3098 3101 3106 3110 3113 3116 3119 3123 3127 3131 3134 3138 3141 3145 3147 3149 3151 3154 3156 3158 3159 3160 3161 3163 3163 3165 3165 3166 3166 3167 3168 3168 3169 3169 3170 3170 3170 3170 3170 3169 3169 3169
3071 3074 3076 3079 3084 3086 3091 3094 3091 3099 3104 3108 3111 3115 3118 3121 3125 3130 3133 3137 3139 3142 3145 3147 3149 3151 3153 3155 3156 3158 3159 3160 3161 3161 3161 3162 3163 3163 3164 3164 3165 3166 3166 3166 3166 3166 3166 3165 3165
3067 3069 3071 3073 3080 3082 3088 3081 3092 3092 3098 3102 3106 3109 3113 3116 3120 3123 3127 3131 3134 3137 3139 3141 3143 3146 3148 3150 3152 3153 3154 3155 3156 3157 3157 3158 3158 3159 3160 3160 3160 3161 3162 3162 3162 3162 3162 3161 3161
3059 3061 3064 3071 3072 3078 3079 3080 3084 3086 3089 3095 3100 3103 3106 3110 3114 3117 3122 3125 3127 3130 3132 3135 3137 3140 3143 3145 3147 3147 3148 3149 3150 3151 3152 3153 3153 3154 3154 3154 3155 3155 3156 3156 3157 3157 3157 3157 3156
3045 3051 3058 3064 3068 3070 3072 3075 3078 3080 3084 3089 3092 3096 3099 3104 3108 3113 3116 3117 3120 3122 3125 3129 3132 3135 3137 3139 3140 3141 3141 3143 3143 3145 3147 3147 3148 3148 3148 3148 3149 3150 3150 3151 3152 3152 3152 3152 3152
3049 3052 3056 3061 3064 3067 3067 3072 3073 3077 3079 3083 3086 3090 3093 3097 3103 3104 3108 3110 3112 3115 3118 3122 3124 3128 3129 3132 3133 3135 3136 3137 3138 3139 3140 3141 3142 3142 3142 3143 3143 3144 3145 3146 3146 3146 3146 3147 3146
3043 3048 3054 3058 3062 3064 3065 3065 3067 3070 3072 3077 3081 3084 3086 3089 3092 3096 3099 3102 3104 3107 3109 3112 3114 3119 3121 3123 3126 3127 3128 3130 3131 3131 3133 3134 3135 3136 3136 3137 3138 3138 3139 3139 3139 3140 3141 3140 3140
3040 3044 3050 3055 3055 3060 3060 3061 3062 3065 3067 3069 3072 3075 3078 3081 3085 3088 3090 3092 3094 3097 3101 3103 3106 3109 3111 3114 3116 3117 3118 3121 3123 3125 3127 3129 3129 3130 3130 3131 3132 3131 3132 3133 3133 3134 3134 3134 3134
3036 3042 3048 3050 3054 3056 3058 3056 3057 3058 3060 3063 3064 3067 3070 3074 3077 3080 3082 3084 3086 3089 3092 3095 3097 3100 3103 3105 3106 3106 3108 3111 3115 3117 3119 3121 3122 3123 3124 3123 3124 3124 3125 3125 3127 3127 3127 3126 3127
3032 3037 3044 3048 3052 3053 3055 3058 3053 3053 3055 3056 3057 3060 3063 3067 3070 3073 3075 3077 3079 3082 3084 3087 3089 3090 3093 3095 3096 3097 3098 3102 3105 3106 3108 3110 3113 3114 3116 3115 3116 3116 3116 3118 3118 3119 3119 3120 3119
3031 3035 3041 3045 3049 3050 3048 3051 3049 3049 3051 3052 3052 3055 3059 3062 3065 3067 3069 3070 3072 3074 3076 3079 3081 3081 3083 3085 3087 3088 3089 3092 3093 3096 3097 3099 3101 3104 3105 3106 3106 3107 3108 3109 3110 3110 3111 3111 3110
3026 3032 3037 3041 3044 3038 3043 3048 3045 3045 3047 3049 3050 3052 3056 3059 3061 3063 3064 3066 3067 3068 3070 3072 3073 3075 3076 3077 3079 3080 3081 3083 3084 3087 3088 3088 3089 3091 3094 3096 3096 3096 3098 3099 3099 3100 3101 3102 3102
3024 3028 3028 3026 3028 3034 3041 3040 3040 3042 3043 3046 3048 3051 3054 3056 3058 3060 3061 3062 3063 3064 3066 3068 3069 3069 3070 3070 3070 3071 3072 3074 3075 3077 3078 3079 3080 3083 3084 3083 3084 3085 3086 3087 3089 3090 3091 3092 3092
3021 3022 3027 3027 3030 3031 3035 3036 3036 3037 3040 3043 3046 3050 3052 3054 3055 3057 3058 3060 3061 3061 3062 3063 3063 3062 3063 3063 3063 3064 3065 3066 3067 3067 3068 3069 3070 3071 3073 3072 3074 3075 3076 3077 3078 3080 3082 3083 3081
3019 3024 3028 3027 3026 3025 3032 3033 3032 3033 3037 3041 3045 3048 3050 3051 3053 3054 3056 3057 3057 3057 3057 3057 3057 3057 3057 3056 3056 3056 3057 3057 3058 3058 3059 3060 3060 3061 3062 3062 3064 3065 3067 3067 3068 3070 3071 3071 3072
3020 3022 3023 3023 3023 3021 3025 3029 3029 3032 3036 3040 3043 3045 3046 3048 3050 3051 3052 3052 3052 3052 3051 3051 3050 3049 3048 3048 3047 3048 3048 3048 3048 3049 3050 3050 3051 3052 3052 3053 3054 3055 3057 3058 3059 3060 3060 3061 3062
3019 3020 3022 3023 3025 3025 3027 3030 3028 3031 3035 3038 3040 3042 3044 3045 3047 3047 3046 3046 3045 3044 3043 3043 3042 3042 3041 3040 3039 3039 3039 3039 3038 3038 3038 3039 3039 3040 3042 3043 3044 3045 3046 3047 3048 3050 3052 3053 3054